Location: Boursonne
(49.2024°N, 3.0468°E)
Time: 06:55:54
(UTC+00:00)

Okean 1-7 - Pass Details

Date: 03 March 2021
Orbit: 589 x 619 km, 82.5° (Epoch: 12 April)

Event Time Altitude Azimuth Distance (km) Brightness Sun altitude
Rises 19:34:07 0° 346° (NNW) 2,899 6.9 -20.2°
Reaches altitude 10° 19:36:23 10° 342° (NNW) 1,985 6.1 -20.6°
Maximum altitude 19:40:40 53° 266° (W) 752 3.8 -21.3°
Drops below altitude 10° 19:44:52 10° 189° (S) 1,952 5.5 -21.9°
Enters shadow 19:45:50 - 187° (S) 2,338 5.9 -22.1°
